Location: Namasale
(1.5000°N, 32.6167°E)
Time: 09:22:50
(UTC+00:00)

Courier 1B - Pass Details

Date: 23 April 2021
Orbit: 962 x 1209 km, 28.3° (Epoch: 15 May)

Event Time Altitude Azimuth Distance (km) Brightness Sun altitude
Rises 05:11:00 0° 239° (WSW) 4,070 10.2 20.6°
Reaches altitude 10° 05:13:54 10° 238° (WSW) 3,083 9.6 21.3°
Maximum altitude 05:21:34 86° 150° (SSE) 1,131 8.3 23.2°
Drops below altitude 10° 05:28:45 10° 61° (ENE) 2,902 11.6 24.9°
Sets 05:31:24 0° 61° (ENE) 3,820 11.8 25.6°
